Wind_Speed
24 23 23 23 22 19 19 17 17 14 11 9 7 8 10 11 13 16 17 11 22 7 6 19 15 9 4 3 4 1 6 15 18 13 14 1 6 7 11 5 4 7 2 7 19
24 23 23 22 20 17 16 15 9 8 6 4 4 6 7 8 9 15 16 10 18 16 8 18 8 7 3 4 3 5 9 16 6 16 18 4 5 8 8 14 6 3 8 16 23
21 22 22 21 18 15 12 8 6 4 3 2 4 6 3 3 1 7 22 21 15 13 12 9 17 7 4 4 4 5 13 3 8 11 1 5 1 7 7 7 5 10 5 6 17
19 20 20 20 18 14 11 7 6 3 1 1 3 5 2 6 5 3 10 24 21 13 15 8 6 7 6 9 6 6 12 13 6 5 3 6 4 7 3 9 10 11 9 4 7
18 19 18 18 15 12 10 8 5 4 2 2 1 3 2 3 6 9 9 3 16 17 18 11 7 7 12 15 5 3 10 8 12 12 7 1 7 14 16 18 15 14 5 8 6
18 17 17 16 14 11 9 7 5 2 2 1 3 1 1 4 9 11 17 15 17 20 25 17 9 10 4 8 10 6 4 10 13 10 8 5 3 3 21 7 12 10 7 7 7
19 18 15 14 12 10 9 7 6 4 2 2 2 3 3 6 14 12 15 13 15 25 16 18 15 9 5 5 5 4 6 5 7 11 7 11 11 13 26 16 16 11 8 8 9
19 17 15 14 11 10 10 9 7 7 6 2 1 1 4 7 7 12 14 5 15 26 29 24 13 5 2 3 5 4 4 5 8 12 4 13 10 19 7 16 14 10 8 8 7
19 18 16 15 12 11 9 10 8 8 8 4 1 2 6 1 3 7 3 1 9 9 19 22 7 3 1 7 5 2 6 6 7 18 8 16 5 18 20 20 14 14 9 8 7
18 19 18 15 13 12 11 9 6 5 1 4 5 2 2 3 6 1 6 6 3 7 7 12 5 4 2 6 15 18 6 13 8 11 9 18 3 12 19 19 18 19 8 8 8
20 20 17 17 13 13 10 2 3 3 1 4 3 3 4 13 1 3 4 7 6 4 12 13 7 19 14 4 4 8 5 7 1 4 11 10 7 6 8 6 8 10 9 9 9
20 20 18 16 12 10 4 1 1 1 4 3 5 3 7 3 0 3 7 4 4 1 5 13 13 7 8 6 5 9 5 4 2 3 11 7 8 8 9 7 9 10 9 10 5
21 20 18 15 10 5 1 1 1 3 2 4 1 1 5 1 2 3 3 5 2 10 3 15 11 10 7 4 7 3 7 4 5 3 3 4 3 8 11 6 7 7 8 6 10
23 20 19 10 4 1 2 5 2 3 3 4 1 1 3 3 3 2 4 3 3 6 3 4 9 12 8 4 4 4 4 5 5 4 4 3 4 8 9 12 9 14 10 10 8
24 22 18 5 1 2 0 7 2 3 4 3 1 1 3 3 3 3 4 2 5 7 4 6 17 16 10 6 5 2 5 6 3 4 3 1 1 6 3 7 17 14 12 9 9
28 24 12 5 7 3 5 6 2 4 2 3 1 2 3 3 1 4 5 2 4 4 3 5 3 4 3 3 5 7 6 7 5 3 2 5 5 6 6 7 4 7 11 9 9
31 22 6 9 3 10 8 3 4 4 1 2 3 4 6 5 4 1 2 4 3 4 3 8 3 2 4 7 2 4 5 2 1 1 5 2 4 15 7 4 6 8 9 9 9
28 6 8 5 10 11 5 2 5 3 3 1 4 3 2 2 2 2 5 2 1 3 4 3 5 2 4 3 5 5 6 5 6 4 3 2 8 6 6 9 7 8 7 6 8
12 4 8 7 12 7 2 3 6 5 3 2 5 3 4 3 4 4 2 2 2 2 4 5 3 3 3 2 2 4 3 3 6 2 3 5 7 9 7 10 6 6 7 10 8
2 2 2 8 10 3 1 3 2 3 3 0 3 1 1 5 5 3 6 3 3 2 1 3 5 1 1 1 3 3 3 2 3 3 4 4 5 7 6 9 5 7 10 8 7
3 2 1 11 5 1 1 4 3 4 2 0 3 2 3 3 3 5 8 2 4 4 3 3 4 3 3 5 6 1 2 3 2 4 4 2 5 6 6 8 8 8 8 10 10
2 2 3 5 2 1 2 5 2 1 2 3 1 2 1 4 2 3 6 3 7 6 6 4 4 4 4 1 2 4 4 6 4 4 3 2 6 2 6 7 7 7 7 7 9
2 1 1 2 1 3 6 1 2 3 2 2 3 3 2 2 4 1 2 5 7 6 7 6 1 3 2 3 2 5 8 4 2 2 7 4 5 2 4 2 4 7 7 6 7
2 1 2 1 2 2 4 5 2 2 1 2 1 4 2 3 5 4 3 2 3 2 3 4 3 5 6 4 4 6 10 14 10 4 5 10 6 4 4 3 4 5 6 7 8
3 1 2 1 0 4 2 6 3 3 2 4 4 5 3 2 2 3 2 3 3 3 3 4 4 3 4 4 5 6 7 17 18 17 8 5 14 11 6 7 9 7 6 7 7
1 2 2 2 2 3 6 6 7 5 5 3 3 6 3 3 3 4 4 3 3 1 3 2 1 2 3 2 4 4 8 11 18 19 19 17 16 4 5 4 5 10 11 10 9
4 3 2 5 4 2 3 2 4 6 3 6 3 3 3 4 5 5 4 2 3 7 3 3 4 3 3 4 3 7 12 12 7 7 16 15 22 6 6 7 10 11 12 13 11
Wind_Direction
343 340 337 333 325 315 312 305 296 271 272 275 276 280 272 261 260 253 230 219 223 218 213 197 211 229 149 139 155 104 186 218 212 210 234 87 20 338 315 324 332 330 112 129 139
350 350 349 345 340 336 328 323 307 286 295 302 285 289 263 256 227 234 216 222 233 245 238 183 165 165 208 156 183 142 213 214 187 208 234 174 86 348 3 332 353 332 62 116 140
354 360 1 359 356 356 359 358 351 347 324 293 295 319 260 186 16 249 233 228 234 232 221 212 174 150 229 126 205 191 204 193 200 202 243 270 293 10 1 322 59 344 256 135 139
354 358 1 5 11 14 9 9 21 21 2 237 316 340 178 172 212 62 236 223 225 232 228 183 142 166 198 186 182 173 217 196 150 126 176 235 299 296 282 259 312 305 281 249 163
351 352 0 3 7 7 5 6 29 60 49 212 352 63 109 233 259 297 340 266 221 239 219 200 163 182 198 200 155 233 177 165 124 143 155 319 264 272 281 291 303 303 239 245 178
350 348 353 359 4 4 358 359 1 47 56 346 233 286 283 285 307 300 317 310 233 223 202 203 182 183 170 175 196 185 156 163 149 181 153 152 231 225 266 287 317 331 250 237 202
346 352 347 347 355 2 348 338 341 319 324 317 261 250 268 269 316 310 314 315 216 193 193 206 178 169 130 132 175 185 105 111 190 169 177 175 231 220 256 285 298 294 278 233 234
341 342 348 340 338 347 335 315 308 299 298 292 237 234 251 209 335 322 321 330 159 181 190 196 192 136 144 134 104 98 94 150 200 168 143 150 222 221 261 269 278 282 268 265 210
342 339 338 341 335 326 330 313 301 286 283 269 251 168 273 48 266 310 298 95 143 171 197 193 143 166 54 132 85 163 174 186 154 198 154 181 177 193 196 239 255 261 255 263 268
343 339 337 331 333 327 317 302 294 312 279 266 274 325 249 313 313 2 88 68 138 130 158 187 186 143 118 168 185 186 190 191 170 188 179 196 216 168 194 197 221 252 242 249 260
340 334 333 327 328 327 327 299 2 321 352 233 281 273 300 318 53 92 85 51 12 175 188 164 176 199 187 186 159 120 112 166 140 201 192 204 214 230 184 187 223 247 252 235 239
337 334 332 326 321 321 316 92 251 249 309 262 270 262 271 262 283 109 129 135 12 76 166 148 205 174 138 153 137 134 119 152 76 158 181 185 212 245 257 221 210 230 238 235 220
335 334 332 324 308 294 106 221 329 321 298 299 196 253 276 356 24 128 129 152 167 172 176 163 158 150 140 119 132 91 151 165 162 99 60 116 246 227 239 236 244 238 243 214 204
334 332 328 315 292 247 234 171 125 355 36 14 102 70 306 330 27 313 95 136 187 138 105 86 145 148 148 114 111 97 159 149 115 113 204 163 269 240 231 238 232 239 218 228 198
331 331 323 243 204 199 132 151 114 55 56 311 54 10 336 347 123 339 308 141 124 128 131 196 165 154 160 152 122 122 137 143 124 95 121 222 151 254 233 231 236 235 243 219 195
329 327 316 188 212 178 148 132 88 38 325 114 91 68 33 299 267 141 344 296 87 69 91 87 33 74 127 90 143 133 83 54 55 83 312 183 172 254 211 215 218 234 233 206 183
330 321 216 170 171 158 150 121 35 108 214 162 114 178 228 168 102 47 138 110 144 119 91 83 30 59 45 93 69 90 98 60 52 215 227 282 175 243 251 266 218 236 244 199 179
334 2 158 157 146 154 141 68 70 268 268 123 120 169 108 130 96 107 119 106 260 150 88 122 144 64 357 84 166 145 164 151 180 190 238 73 237 240 247 260 247 228 211 167 161
343 78 144 163 158 158 123 58 199 204 251 208 162 152 156 121 98 97 58 144 231 41 110 109 67 26 37 19 59 189 147 160 104 45 69 217 290 296 268 268 258 210 165 163 168
35 95 38 173 168 155 109 256 220 212 345 314 280 186 49 113 145 144 161 210 187 153 139 138 104 301 9 313 52 86 169 90 3 143 242 258 260 243 282 269 269 202 173 166 159
21 76 57 160 174 206 203 218 279 245 325 202 293 255 159 161 166 170 170 165 180 152 71 111 90 133 155 213 185 160 158 88 136 155 194 281 255 216 249 264 228 199 176 167 165
36 90 181 174 246 174 206 194 225 107 70 317 289 325 95 138 137 201 176 234 164 138 147 187 118 155 190 231 253 170 199 187 192 219 232 172 262 245 270 270 185 189 168 158 162
79 164 184 230 335 336 302 289 99 35 53 17 327 360 307 122 108 91 68 346 141 155 161 177 107 104 80 357 316 220 194 218 90 47 201 179 259 336 12 58 169 161 157 156 140
70 15 325 245 250 247 0 338 351 89 81 33 335 345 357 3 28 134 115 49 126 123 104 94 150 168 185 198 133 200 205 206 209 202 200 227 280 306 325 192 208 179 164 163 160
23 261 189 357 312 349 334 356 310 31 52 50 16 30 328 344 46 99 103 119 71 130 99 127 172 151 236 222 169 189 195 212 218 230 227 258 233 242 231 221 206 190 164 153 170
93 108 1 302 309 295 8 6 22 340 10 47 54 336 350 59 5 225 136 177 183 52 101 16 166 111 323 296 215 255 228 220 223 234 245 255 270 235 256 175 177 196 176 184 194
21 25 61 340 352 60 11 319 13 336 74 88 339 342 63 359 309 302 229 190 185 148 134 109 125 79 276 333 331 286 233 212 202 214 224 233 243 170 243 225 205 199 200 184 195
Height
804 799 795 791 786 784 782 780 778 777 777 776 777 778 778 779 779 780 778 780 782 782 785 788 792 794 794 796 798 799 812 812 811 816 804 805 813 808 801 802 795 793 789 788 792
804 799 794 791 786 782 780 778 776 776 776 776 776 776 776 776 777 776 777 778 780 782 783 785 790 794 795 796 798 802 809 799 797 797 794 805 814 815 812 806 799 798 792 792 793
804 800 794 789 786 782 779 777 776 776 776 777 775 775 775 776 778 770 773 776 778 781 783 785 788 792 795 796 799 800 803 796 796 799 800 810 812 814 817 812 806 812 800 792 794
804 800 796 791 787 784 782 779 776 776 776 776 775 774 774 776 778 768 767 772 776 780 783 784 788 794 794 791 794 800 793 791 795 800 807 810 809 817 817 811 806 807 806 797 796
803 801 796 792 788 785 784 782 779 776 776 777 776 775 776 776 772 767 769 771 774 776 779 782 786 791 789 787 793 793 788 790 796 803 806 809 815 822 816 807 804 804 799 800 796
803 800 797 793 789 786 785 783 781 779 777 777 778 777 777 779 769 767 766 766 766 771 776 780 781 783 788 791 792 791 788 793 798 805 805 814 819 824 801 807 805 805 801 800 797
803 800 797 793 790 786 785 784 782 781 779 778 778 777 777 776 770 768 765 761 760 766 773 778 778 783 784 792 790 791 801 804 803 803 808 810 824 825 802 808 809 808 807 802 798
802 799 795 792 789 786 784 783 781 780 779 777 776 776 774 771 770 766 763 761 760 766 773 776 778 782 784 784 791 795 805 810 805 803 801 814 818 811 812 815 810 807 807 805 799
802 797 793 790 788 786 782 782 780 778 778 778 776 775 774 771 770 765 765 764 764 768 773 776 777 783 785 793 801 800 813 808 805 795 796 807 807 801 808 809 807 805 806 802 799
799 797 794 789 788 785 782 780 779 778 777 777 776 778 771 769 768 768 766 764 766 769 773 776 782 787 792 793 790 791 803 795 798 795 796 804 802 796 798 804 804 796 802 802 801
799 795 792 788 787 785 781 780 783 782 777 776 775 773 769 768 766 766 766 768 771 771 771 772 783 778 777 784 782 793 797 803 795 791 794 799 803 797 797 803 805 802 803 800 798
796 793 790 785 783 783 781 782 782 784 780 772 773 772 769 768 768 768 770 777 779 773 764 779 777 781 781 781 782 788 799 800 795 792 798 804 805 798 793 793 796 795 798 797 795
794 791 788 783 781 780 780 782 782 783 782 773 770 770 767 769 767 768 770 775 785 783 772 769 770 776 779 785 787 793 801 805 802 798 798 802 807 802 791 792 790 791 790 791 793
791 787 784 782 782 779 779 780 782 784 798 771 768 769 767 766 769 763 773 772 778 772 775 771 771 777 784 787 789 796 792 796 801 806 815 800 818 802 788 789 788 782 787 786 788
787 785 781 780 780 780 779 780 782 785 812 773 767 768 767 766 769 764 762 768 775 769 774 780 771 777 783 786 785 792 793 797 803 814 810 811 819 795 791 794 779 775 775 782 785
784 781 778 778 780 779 780 780 783 803 782 766 769 770 771 765 760 766 764 762 768 767 773 776 779 781 783 784 783 790 799 808 817 822 840 813 815 796 787 776 775 774 772 776 781
779 773 773 775 776 776 779 782 798 806 766 765 765 768 769 763 763 764 764 768 778 775 772 776 787 787 786 789 787 790 802 824 825 822 831 821 816 773 772 772 770 771 773 775 777
775 771 772 775 775 776 779 786 800 779 759 752 759 759 757 757 767 766 769 771 770 769 775 777 790 788 793 791 793 797 801 827 820 832 823 824 811 776 769 765 764 764 767 773 776
772 774 774 776 776 777 780 807 789 782 761 755 755 756 758 758 761 768 769 771 767 768 774 791 792 794 793 794 795 801 818 807 830 836 857 823 805 779 769 767 765 766 768 771 776
772 775 775 775 776 777 777 779 778 760 755 756 759 751 754 756 761 767 774 770 768 767 769 782 796 796 796 795 798 798 801 811 841 844 825 811 808 788 770 768 768 767 766 770 775
773 774 775 777 778 776 782 788 766 757 756 759 759 755 753 755 758 766 766 768 765 770 770 779 788 801 800 797 791 803 805 807 808 824 818 813 794 779 770 769 769 766 765 767 773
774 778 777 778 776 771 786 765 754 753 754 758 757 756 755 755 759 762 764 762 763 769 775 779 792 798 796 793 792 796 796 803 802 812 829 829 796 764 768 766 763 764 765 768 771
779 779 776 776 769 778 768 754 752 755 755 756 759 757 756 756 764 763 762 761 762 767 773 777 795 796 799 802 797 792 792 794 795 810 813 817 782 761 764 760 760 763 765 769 772
782 785 779 777 773 770 771 764 754 753 755 756 758 758 757 757 760 765 767 766 764 765 767 771 789 792 792 788 792 789 787 789 794 798 785 784 774 760 760 762 763 763 764 769 773
786 789 788 778 773 777 770 770 759 755 754 755 758 764 763 761 760 766 767 767 767 766 772 774 793 797 787 781 788 789 787 780 784 780 778 763 769 761 760 761 761 763 765 771 775
789 788 789 789 785 777 774 777 771 769 758 757 762 765 761 764 766 765 766 767 764 769 771 780 800 798 801 779 782 781 782 782 773 773 772 768 766 756 753 756 761 759 762 767 771
790 791 793 793 789 780 787 780 775 771 761 765 770 768 764 767 769 766 764 763 762 769 776 781 799 812 812 792 781 786 771 772 769 765 763 768 744 754 754 754 751 753 758 758 764